timestamp,surface_pressure_avg,surface_temp_avg,battery_voltage,lat,long
2018-12-30 00:00:00+00:00,226.8665,2.37,12.81,47.84626,-54.09684
2018-12-30 00:10:00+00:00,224.4232,2.3,12.73,47.84626,-54.09684
2018-12-30 00:20:00+00:00,224.6614,2.21,12.81,47.84626,-54.09684
2018-12-30 00:30:00+00:00,231.6514,2.24,12.89,47.84626,-54.09684
2018-12-30 00:40:00+00:00,231.6831,2.2,12.89,47.84626,-54.09684
2018-12-30 00:50:00+00:00,224.3048,2.1,12.89,47.84626,-54.09684
2018-12-30 01:00:00+00:00,226.0514,2.07,12.81,47.84626,-54.09684
2018-12-30 01:10:00+00:00,232.7398,2.1,12.73,47.84626,-54.09684
2018-12-30 01:20:00+00:00,234.8498,2.14,12.81,47.84626,-54.09684
2018-12-30 01:30:00+00:00,231.3264,2.1,12.81,47.84626,-54.09684
2018-12-30 01:40:00+00:00,234.6548,1.9,12.89,47.84626,-54.09684
2018-12-30 01:50:00+00:00,241.5047,1.8,12.89,47.84626,-54.09684
2018-12-30 02:00:00+00:00,242.4498,1.6,12.81,47.84626,-54.09684
2018-12-30 02:10:00+00:00,240.4164,1.6,12.73,47.84626,-54.09684
2018-12-30 02:20:00+00:00,245.3381,1.7,12.81,47.84626,-54.09684
2018-12-30 02:30:00+00:00,251.8031,1.85,12.81,47.84626,-54.09684
2018-12-30 02:40:00+00:00,257.4581,1.99,12.89,47.84626,-54.09684
2018-12-30 02:50:00+00:00,265.4831,2.24,12.89,47.84626,-54.09684
2018-12-30 03:00:00+00:00,270.9514,2.38,12.81,47.84626,-54.09684
2018-12-30 03:10:00+00:00,274.4381,2.4,12.73,47.84626,-54.09684
2018-12-30 03:20:00+00:00,279.4614,2.4,12.81,47.84626,-54.09684
2018-12-30 03:30:00+00:00,286.7347,2.44,12.81,47.84626,-54.09684
2018-12-30 03:40:00+00:00,297.1281,2.45,12.89,47.84626,-54.09684
2018-12-30 03:50:00+00:00,303.543,2.46,12.89,47.84626,-54.09684
2018-12-30 04:00:00+00:00,301.7946,2.4,12.81,47.84626,-54.09684
2018-12-30 04:10:00+00:00,302.4664,2.4,12.73,47.84626,-54.09684
2018-12-30 04:20:00+00:00,311.5213,2.4,12.81,47.84626,-54.09684
2018-12-30 04:30:00+00:00,321.5746,2.4,12.81,47.84626,-54.09684
2018-12-30 04:40:00+00:00,324.843,2.4,12.89,47.84626,-54.09684
2018-12-30 04:50:00+00:00,323.7813,2.4,12.89,47.84626,-54.09684
2018-12-30 05:00:00+00:00,325.398,2.4,12.81,47.84626,-54.09684
2018-12-30 05:10:00+00:00,321.3747,2.34,12.73,47.84626,-54.09684
2018-12-30 05:20:00+00:00,320.5447,2.3,12.81,47.84626,-54.09684
2018-12-30 05:30:00+00:00,326.6796,2.3,12.81,47.84626,-54.09684
2018-12-30 05:40:00+00:00,324.7047,2.3,12.89,47.84626,-54.09684
2018-12-30 05:50:00+00:00,321.513,2.28,12.89,47.84626,-54.09684
2018-12-30 06:00:00+00:00,328.233,2.28,12.81,47.84626,-54.09684
2018-12-30 06:10:00+00:00,332.673,2.3,12.73,47.84626,-54.09684
2018-12-30 06:20:00+00:00,325.8163,2.29,12.81,47.84626,-54.09684
2018-12-30 06:30:00+00:00,323.5096,2.26,12.81,47.84626,-54.09684
2018-12-30 06:40:00+00:00,327.9896,2.29,12.89,47.84626,-54.09684
2018-12-30 06:50:00+00:00,327.6063,2.3,12.89,47.84626,-54.09684
2018-12-30 07:00:00+00:00,322.5447,2.3,12.81,47.84626,-54.09684
2018-12-30 07:10:00+00:00,321.7547,2.3,12.73,47.84626,-54.09684
2018-12-30 07:20:00+00:00,321.4979,2.32,12.81,47.84626,-54.09684
2018-12-30 07:30:00+00:00,308.7313,2.3,12.81,47.84626,-54.09684
2018-12-30 07:40:00+00:00,298.8781,2.3,12.89,47.84626,-54.09684
2018-12-30 07:50:00+00:00,298.8563,2.3,12.89,47.84626,-54.09684
2018-12-30 08:00:00+00:00,297.353,2.27,12.81,47.84626,-54.09684
2018-12-30 08:10:00+00:00,284.0247,2.19,12.73,47.84626,-54.09684
2018-12-30 08:20:00+00:00,274.9347,2.0,12.81,47.84626,-54.09684
2018-12-30 08:30:00+00:00,267.7581,1.98,12.81,47.84626,-54.09684
2018-12-30 08:40:00+00:00,260.2931,1.9,12.81,47.84626,-54.09684
2018-12-30 08:50:00+00:00,255.153,1.8,12.89,47.84626,-54.09684
2018-12-30 09:00:00+00:00,254.1431,1.8,12.81,47.84626,-54.09684
2018-12-30 09:10:00+00:00,246.5214,1.8,12.73,47.84626,-54.09684
2018-12-30 09:20:00+00:00,236.6597,1.78,12.81,47.84626,-54.09684
2018-12-30 09:30:00+00:00,233.9764,1.77,12.81,47.84626,-54.09684
2018-12-30 09:40:00+00:00,231.2731,1.7,12.81,47.84626,-54.09684
2018-12-30 09:50:00+00:00,221.9664,1.7,12.81,47.84626,-54.09684
2018-12-30 10:00:00+00:00,216.9698,1.7,12.81,47.84626,-54.09684
2018-12-30 10:10:00+00:00,220.2997,1.6,12.73,47.84626,-54.09684
2018-12-30 10:20:00+00:00,217.2347,1.66,12.81,47.84626,-54.09684
2018-12-30 10:30:00+00:00,214.103,1.68,12.81,47.84626,-54.09684
2018-12-30 10:40:00+00:00,219.3298,1.7,12.81,47.84626,-54.09684
2018-12-30 10:50:00+00:00,221.7081,1.73,12.81,47.84626,-54.09684
2018-12-30 11:00:00+00:00,217.9264,1.78,12.73,47.84626,-54.09684
2018-12-30 11:10:00+00:00,217.7381,1.8,12.73,47.84626,-54.09684
2018-12-30 11:20:00+00:00,218.7047,1.93,12.81,47.84626,-54.09684
2018-12-30 11:30:00+00:00,215.1031,1.97,12.81,47.84626,-54.09684
2018-12-30 11:40:00+00:00,214.6464,1.9,12.81,47.84626,-54.09684
2018-12-30 11:50:00+00:00,219.0914,1.96,12.97,47.84626,-54.09684
2018-12-30 12:00:00+00:00,219.5098,2.0,12.89,47.84626,-54.09684
2018-12-30 12:10:00+00:00,216.3415,2.0,12.97,47.84626,-54.09684
2018-12-30 12:20:00+00:00,216.0631,2.02,13.13,47.84626,-54.09684
2018-12-30 12:30:00+00:00,218.8398,2.06,13.13,47.84626,-54.09684
2018-12-30 12:40:00+00:00,218.6814,2.08,13.21,47.84626,-54.09684
2018-12-30 12:50:00+00:00,218.7481,2.07,13.29,47.84626,-54.09684
2018-12-30 13:00:00+00:00,219.2081,2.08,13.37,47.84626,-54.09684
2018-12-30 13:10:00+00:00,220.4014,2.0,13.29,47.84626,-54.09684
2018-12-30 13:20:00+00:00,221.9365,2.0,13.44,47.84626,-54.09684
2018-12-30 13:30:00+00:00,221.9748,1.99,13.44,47.84626,-54.09684
2018-12-30 13:40:00+00:00,220.8047,1.97,13.53,47.84626,-54.09684
2018-12-30 13:50:00+00:00,222.5081,1.9,13.53,47.84626,-54.09684
2018-12-30 14:00:00+00:00,225.9997,1.9,13.53,47.84626,-54.09684
2018-12-30 14:10:00+00:00,230.3797,1.9,13.68,47.84626,-54.09684
2018-12-30 14:20:00+00:00,236.1964,1.9,14.24,47.84626,-54.09684
2018-12-30 14:30:00+00:00,239.2031,1.9,14.08,47.84626,-54.09684
2018-12-30 14:40:00+00:00,241.0665,1.9,14.32,47.84626,-54.09684
2018-12-30 14:50:00+00:00,248.4664,1.88,14.32,47.84626,-54.09684
2018-12-30 15:00:00+00:00,259.0031,1.8,14.72,47.84626,-54.09684
2018-12-30 15:10:00+00:00,266.3097,1.88,16.55,47.84626,-54.09684
2018-12-30 15:20:00+00:00,271.0748,1.88,14.88,47.84626,-54.09684
2018-12-30 15:30:00+00:00,280.2614,1.41,15.51,47.84626,-54.09684
2018-12-30 15:40:00+00:00,287.628,1.79,14.64,47.84626,-54.09684
2018-12-30 15:50:00+00:00,292.0814,1.8,14.88,47.84626,-54.09684
2018-12-30 16:00:00+00:00,299.9014,1.87,14.88,47.84626,-54.09684
2018-12-30 16:10:00+00:00,308.778,1.91,14.72,47.84626,-54.09684
2018-12-30 16:20:00+00:00,309.3864,1.98,14.72,47.84626,-54.09684
2018-12-30 16:30:00+00:00,306.948,1.95,14.64,47.84626,-54.09684
2018-12-30 16:40:00+00:00,313.7747,1.98,14.64,47.84626,-54.09684
2018-12-30 16:50:00+00:00,325.4797,1.96,14.88,47.84626,-54.09684
2018-12-30 17:00:00+00:00,326.0613,1.98,14.48,47.84626,-54.09684
2018-12-30 17:10:00+00:00,323.1246,1.99,14.4,47.84626,-54.09684
2018-12-30 17:20:00+00:00,328.6929,2.0,14.48,47.84626,-54.09684
2018-12-30 17:30:00+00:00,339.0164,2.0,14.4,47.84626,-54.09684
2018-12-30 17:40:00+00:00,341.4779,2.0,14.4,47.84626,-54.09684
2018-12-30 17:50:00+00:00,338.1896,2.02,14.4,47.84626,-54.09684
2018-12-30 18:00:00+00:00,340.5012,2.1,14.32,47.84626,-54.09684
2018-12-30 18:10:00+00:00,342.533,2.15,14.16,47.84626,-54.09684
2018-12-30 18:20:00+00:00,342.5046,2.1,14.24,47.84626,-54.09684
2018-12-30 18:30:00+00:00,342.8413,2.1,14.24,47.84626,-54.09684
2018-12-30 18:40:00+00:00,348.7229,2.1,14.16,47.84626,-54.09684
2018-12-30 18:50:00+00:00,350.2396,2.18,14.16,47.84626,-54.09684
2018-12-30 19:00:00+00:00,345.088,2.0,14.0,47.84626,-54.09684
2018-12-30 19:10:00+00:00,343.5613,2.0,13.76,47.84626,-54.09684
2018-12-30 19:20:00+00:00,345.593,2.1,13.76,47.84626,-54.09684
2018-12-30 19:30:00+00:00,346.353,2.12,13.68,47.84626,-54.09684
2018-12-30 19:40:00+00:00,343.0047,2.15,13.6,47.84626,-54.09684
2018-12-30 19:50:00+00:00,340.0829,2.16,13.6,47.84626,-54.09684
2018-12-30 20:00:00+00:00,334.2646,2.18,13.44,47.84626,-54.09684
2018-12-30 20:10:00+00:00,328.4113,2.18,13.29,47.84626,-54.09684
2018-12-30 20:20:00+00:00,324.8196,2.19,13.29,47.84626,-54.09684
2018-12-30 20:30:00+00:00,320.2197,2.2,13.29,47.84626,-54.09684
2018-12-30 20:40:00+00:00,315.8013,2.2,13.29,47.84626,-54.09684
2018-12-30 20:50:00+00:00,311.3447,2.2,13.21,47.84626,-54.09684
2018-12-30 21:00:00+00:00,306.4747,2.19,13.13,47.84626,-54.09684
2018-12-30 21:10:00+00:00,297.0347,2.12,13.05,47.84626,-54.09684
2018-12-30 21:20:00+00:00,290.9297,2.1,13.13,47.84626,-54.09684
2018-12-30 21:30:00+00:00,287.1531,2.1,13.13,47.84626,-54.09684
2018-12-30 21:40:00+00:00,280.293,2.13,13.13,47.84626,-54.09684
2018-12-30 21:50:00+00:00,274.0231,1.72,13.13,47.84626,-54.09684
2018-12-30 22:00:00+00:00,273.4398,1.79,13.05,47.84626,-54.09684
2018-12-30 22:10:00+00:00,276.408,1.66,12.97,47.84626,-54.09684
2018-12-30 22:20:00+00:00,277.0747,1.57,13.05,47.84626,-54.09684
2018-12-30 22:30:00+00:00,276.4647,1.8,13.05,47.84626,-54.09684
2018-12-30 22:40:00+00:00,274.4731,1.89,13.05,47.84626,-54.09684
2018-12-30 22:50:00+00:00,268.2181,1.9,13.05,47.84626,-54.09684
2018-12-30 23:00:00+00:00,259.9464,1.95,13.05,47.84626,-54.09684
2018-12-30 23:10:00+00:00,252.2515,2.0,12.97,47.84626,-54.09684
2018-12-30 23:20:00+00:00,247.5981,2.0,13.05,47.84626,-54.09684
2018-12-30 23:30:00+00:00,245.8181,2.0,13.05,47.84626,-54.09684
2018-12-30 23:40:00+00:00,246.5764,2.0,13.05,47.84626,-54.09684
2018-12-30 23:50:00+00:00,244.3447,1.99,13.05,47.84626,-54.09684
